www.pogodaiklimat.ru
ПОГОДА в Маунт Поконо
Время
и дата
01:53 13.04
02:24 13.04
02:53 13.04
03:28 13.04
03:53 13.04
04:00 13.04
04:07 13.04
04:53 13.04
05:53 13.04
06:53 13.04
07:37 13.04
07:53 13.04
08:53 13.04
09:53 13.04
10:53 13.04
11:53 13.04
12:53 13.04
13:53 13.04
14:53 13.04
15:40 13.04
15:53 13.04
16:53 13.04
17:53 13.04
18:53 13.04
19:53 13.04
20:53 13.04
21:53 13.04
22:53 13.04
23:53 13.04
00:53 14.04
01:53 14.04
02:53 14.04
03:53 14.04
04:53 14.04
05:53 14.04
06:53 14.04
07:53 14.04
08:53 14.04
09:53 14.04
10:53 14.04
11:53 14.04
12:53 14.04
13:53 14.04
14:53 14.04
15:53 14.04
16:53 14.04
17:53 14.04
18:22 14.04
Ветер
(напр.,м/с)
Видим. Явления Облачность Т
(С)
Тd
(С)
f
(%)
Тe
(С)
Тes
(С)
Комфортность P
(гПа)
Po
(гПа)
Тmin
(С)
Tmax
(С)
R
(мм)
R24
(мм)
S
(см)
З 9
{14}
16 км 2/2 1440 м +4.4 +1.7 83 -2 -2 997.9 931.0
З 9
{14}
16 км слабый дождь 10/10 450 m
[Ns]
+3.3 +1.7 89 -4 -4 931.6
З 9
{14}
16 км слабый дождь 10/10 420 m
[Ns]
+3.3 +1.7 89 -4 -4 998.9 932.0
З 7
{10}
13 км слабый дождь 10/10 300 m
[Ns]
+2.8 +1.7 92 -4 -4 932.0
З 7
{12}
16 км слабый дождь 10/10 300 m
[Ns]
+2.8 +1.7 92 -4 -4 999.2 932.0 1.5
З 7
{12}
16 км слабый дождь 10/10 270 m
[Ns]
+2.8 +1.7 92 -4 -4 932.0
З 8
{13}
16 км слабый дождь 10/10 270 m
[Ns]
+2.8 +1.1 89 -4 -4 932.3
З 7
{12}
16 км слабый дождь 10/10 330 m
[Ns]
+2.8 +1.1 89 -4 -4 999.7 932.6
З 9
{14}
16 км слабый дождь 10/10 360 m
[Ns]
+2.2 +0.6 89 -5 -5 1000.6 933.2
З 7
{13}
14 км 10/10 420 м +2.2 +0.6 89 -4 -4 1001.3 933.9 +2.2 +4.4 2.3 9.9
З 9
{14}
16 км 10/10 390 м +2.8 +0.6 85 -4 -4 934.2
З 10
{15}
16 км 10/10 480 м +2.8 +0.6 85 -4 -4 1001.7 934.2
З 9
{15}
16 км слабый дождь 10/10 510 m
[Ns]
+3.3 +0.6 82 -3 -3 1002.3 934.8
З 11
{15}
16 км слабый дождь 10/10 540 m
[Ns]
+3.3 +1.1 85 -4 -4 1003.1 935.8
З 11
{20}
16 км слабый дождь 10/10 510 m
[Ns]
+3.3 +1.1 85 -4 -4 1003.8 936.4
З 9
{17}
16 км слабый дождь 10/10 480 m
[Ns]
+3.9 +1.1 82 -3 -3 1004.4 936.7
З 10
{15}
14 км слабый дождь 10/10 540 m
[Ns]
+3.3 +1.1 85 -4 -4 1005.4 937.6 +2.2 +3.9 0.5
З 8
{15}
16 км слабый дождь 10/10 540 m
[Ns]
+3.3 +1.1 85 -3 -3 1006.2 938.3
З 12
{17}
16 км 10/10 720 м +5.0 +0.6 73 -2 -2 1006.3 938.3
З 10
{20}
16 км 10/10 960 м +5.0 0.0 70 -1 -1 938.9
З 12
{21}
16 км 10/10 990 м +5.0 0.0 70 -2 -2 1007.0 938.9 0.8
З 10
{20}
16 км 10/10 1050 м +5.6 -0.6 64 0 0 1007.7 939.5
З 10
{17}
16 км 8/8 1260 м +5.6 -1.1 62 0 0 1008.6 940.5
З 9
{13}
16 км 10/10 1290 м +5.6 -1.1 62 0 0 1009.6 941.4 +3.3 +6.1 0.8
З 7 16 км 5/5 1320 м +5.6 -1.1 62 +1 +1 1010.5 942.4
З 9
{14}
16 км ясно +5.0 -1.1 65 -1 -1 1011.0 942.7
З 8
{13}
16 км ясно +5.0 -1.1 65 -1 -1 1011.7 943.3
З 11
{15}
16 км ясно +5.0 -1.1 65 -1 -1 1011.9 943.7
З 8
{13}
16 км ясно +5.0 -1.1 65 -1 -1 1012.5 944.0
З 7
{11}
16 км ясно +4.4 -1.1 67 -1 -1 1012.7 944.3 +4.4 +5.6
З 5 16 км ясно +4.4 -1.7 65 0 0 1013.0 944.3
З 3 16 км ясно +3.3 -2.2 67 0 0 1013.1 944.6
ЮЗ 3 16 км ясно +1.7 -2.2 75 -2 -2 1013.6 944.9
З 2 16 км 5/0 2100 m
[Ac]
+1.1 -2.2 79 -2 -2 1013.7 944.9
З 4 16 км ясно +2.2 -1.1 79 -3 -3 1014.8 946.2
З 3 16 км ясно +5.0 -0.6 67 +2 +2 1014.5 946.2 +1.1 +5.0 1.3
ЮЗ 4 16 км ясно +7.8 0.0 58 +5 +6 1014.0 945.9
ЮЗ 5 16 км ясно +10.0 +0.6 52 +7 +10 1013.3 945.2
ЮЗ 6
{10}
16 км ясно +12.2 +0.6 45 +10 +13 1012.7 944.9
Ю 4 16 км 10/5 1800 m
[Ac]
+11.7 +1.1 48 +10 +11 1012.3 944.6
Ю 5
{9}
16 км 5/0 2850 m
[Ac]
+11.1 +3.3 59 +9 +14 1009.5 941.8
Ю 7
{12}
16 км ясно +15.0 +4.4 49 +13 +18 1008.3 941.1 +5.0 +15.0
ЮЗ 9
{15}
16 км ясно +17.8 +4.4 41 +17 +18 1006.3 939.5
Ю 7
{13}
16 км ясно +18.9 +4.4 38 +19 +22 1004.9 938.0
Ю 9
{14}
16 км ясно +18.9 +5.0 40 +18 +19 1003.8 937.0
Ю 7
{11}
16 км ясно +18.9 +5.6 42 +19 +20 1003.4 936.7
Ю 6
{10}
16 км ясно +17.8 +5.6 45 +17 +18 1003.8 937.0
Ю 2 16 км гроза, слабый дождь 10/2 1800 m
[Ac Cb]
+17.2 +6.1 48 +18 +18 937.6
Местоположение метеостанции Pocono Mountains Municipal Airport: широта 41.1382 долгота -75.3797 высота над уровнем моря 575 м.
В архиве по умолчанию представлена погода в Маунт Поконо за последние 1-2 суток. Обновление информации о фактической погоде в базе происходит ежечасно! Архивные данные за месяц целиком и за предыдущие месяцы Вы можете получить, выбрав интересующий диапазон дат из раскрывающегося списка и нажав кнопку "Ввод!".
Внимание! Архив погоды МЕТАР в базе сайта по станциям, не включенным в климатический монитор, хранится не более 60 дней. Нет смысла пытаться выбрать более раннюю дату.
*Определитесь, кто Вы:
Внимание! Время в таблицах - местное (без учета летнего времени). Для получения всемирного времени необходимо вычесть поправку, которая равна -5 ч.
Смотрите также архив погоды в соседних городах и на ближайших метеорологических станциях:
Партнеры нашего сайта:      
Пояснения к столбцам:
  • Ветер - указаны скорость ветра в м/с - средняя за 10 мин, порывы в срок и между сроками (в фигурных скобках) и направление, откуда дует ветер: С - северный,
  • СВ - северо-восточный, В - восточный, ЮВ - юго-восточный, Ю - южный, ЮЗ - юго-западный, З - западный, СЗ - северо-западный.
  • Видимость - горизонтальная дальность видимости в метрах или километрах. При видимости от 1 до 10 км при отсутствии осадков обычно наблюдается дымка, при ухудшении видимости до 1 км и менее - туман. В сухую погоду видимость может ухудшаться дымом, пылью или мглою.
  • Явления - указаны атмосферные явления, наблюдавшиеся в срок или в последний час перед сроком; фигурными скобками обозначены явления, наблюдавшиеся между сроками (за 1-3 часа до срока); квадратными скобками обозначены град или гололедные отложения с указанием их диаметра в мм.
  • Облачность - указаны через наклонную черту общая и нижняя облачность в баллах и высота нижней границы облаков в метрах; квадратными скобками обозначены формы облаков: Ci - перистые, Cs - перисто-слоистые, Cc - перисто-кучевые, Ac - высококучевые, As - высокослоистые, Sc - слоисто-кучевые, Ns - слоисто-дождевые, Cu - кучевые, Cb - кучево-дождевые. Подробнее классификацию облаков см. в Атласе облаков (PDF).
  • T - Температура воздуха - температура, измеренная на высоте 2 м над землей.
  • Td - Температура точки росы - температура, при понижении до которой содержащийся в воздухе водяной пар достигнет насыщения.
  • f - Относительная влажность воздуха - влажноcть воздуха, измеренная на высоте 2 м над землей.
  • Te - Эффективная температура - температура, которую ощущает одетый по сезону человек в тени. Характеристика душности погоды. При расчете учитывается влияние влажности воздуха и скорости ветра на теплоощущения человека.
  • Tes - Эффективная температура на солнце - температура, которую ощущает человек, с поправкой на солнечный нагрев. Характеристика знойности погоды. Зависит от высоты солнца над горизонтом, облачности и скорости ветра. Ночью, в пасмурную погоду, а также при ветре 12 м/с и более поправка равна нулю.
  • P - Атмосферное давление - приведенное к уровню моря атмосферное давление.
  • Po - Атмосферное давление - измеренное на уровне метеостанции атмосферное давление.
  • Tmin - Минимальная температура - минимум температуры воздуха на высоте 2 м над землей.
  • Tmax - Максимальная температура - максимум температуры воздуха на высоте 2 м над землей.
  • R - Количество осадков - Количество выпавших осадков за период времени, мм. При наведении курсора мыши на число - период времени, за который выпало указанное количество осадков.
  • R24 - Количество осадков - Количество выпавших осадков за 24 часа, мм.
  • S - Снежный покров - Высота снежного покрова, см. При наведении курсора мыши на число - состояние снежного покрова и степень покрытия местности в баллах.